GLOBALSTAR M044 [-]

Last updated on Fri Dec 29 2023 00:02:56 GMT+0000 (Coordinated Universal Time)

1 25678U 99019C 23362.14548434 -.00000068 00000+0 21209-3 0 9996 2 25678 51.9992 12.6664 0006560 85.2928 18.3179 11.90226429107352

Satellite not in orbit

GLOBALSTAR M044 [-]